Weather History for Wheeler AAF, HI

Change the Weather History Date:

Friday, March 29, 2013

  Actual Average Record
Temperature  
Mean Temperature 69 °F -  
Max Temperature 75 °F 74 °F 80 °F (2008)
Min Temperature 62 °F 62 °F 58 °F (2012)
Cooling Degree Days 4    
Growing Degree Days 19 (Base 50)    
Moisture  
Dew Point 62 °F    
Average Humidity 84    
Maximum Humidity 94    
Minimum Humidity 63    
Precipitation  
Precipitation 0.00 in - - ()
Sea Level Pressure  
Sea Level Pressure 30.02 in    
Wind  
Wind Speed 6 mph (North)    
Max Wind Speed 20 mph    
Max Gust Speed 21 mph    
Visibility 10 miles    
Events Rain    
Averages and records for this station are not official NWS values.
T = Trace of Precipitation, MM = Missing Value Source: NWS Daily Summary

Daily Weather History Graph

Daily Weather History Graph

Search for Another Location

Airport:

Trip Planner

Search our weather history database for the weather conditions in past years. The results will help you decide how hot, cold, wet, or windy it might be!

Date:

Astronomy

Mar. 29, 2013 Rise Set
Actual Time 6:27 AM HST 6:46 PM HST
Civil Twilight 6:05 AM HST 7:08 PM HST
Nautical Twilight 5:39 AM HST 7:34 PM HST
Astronomical Twilight 5:13 AM HST 8:00 PM HST
Moon 9:32 PM HST (3/29) 8:07 AM HST (3/29)
Length of Visible Light 13h 03m
Length of Day
12h 18m
Waning Gibbous, 92% of the Moon is Illuminated
Mar 29
Waning Gibbous
Apr 2
Last Quarter
Apr 9
New
Apr 18
First Quarter
Apr 25
Full

Hourly Weather History & Observations

Time (HST) Temp. Dew Point Humidity Pressure Visibility Wind Dir Wind Speed Gust Speed Precip Events Conditions
12:55 AM 64.8 °F 61.7 °F 90% 30.03 in 10.0 mi WNW 5.8 mph - 0.00 in   Partly Cloudy
1:15 AM 64.4 °F 62.6 °F 94% 30.02 in 10.0 mi NNW 5.8 mph - N/A   Light Drizzle
1:29 AM 64.4 °F 62.6 °F 94% 30.02 in 10.0 mi NNW 6.9 mph - N/A   Mostly Cloudy
1:55 AM 64.2 °F 61.9 °F 92% 30.01 in 10.0 mi WNW 5.8 mph - 0.00 in   Mostly Cloudy
2:55 AM 64.6 °F 61.9 °F 91% 29.99 in 10.0 mi NW 4.6 mph - N/A   Partly Cloudy
3:45 AM 64.4 °F 62.6 °F 94% 29.99 in 10.0 mi Calm Calm - N/A   Light Drizzle
3:55 AM 64.2 °F 61.7 °F 91% 29.98 in 10.0 mi WNW 6.9 mph - 0.00 in Rain Light Rain
3:59 AM 64.4 °F 60.8 °F 88% 29.98 in 10.0 mi WNW 6.9 mph - N/A   Mostly Cloudy
4:47 AM 64.4 °F 62.6 °F 94% 29.99 in 10.0 mi NNW 4.6 mph - N/A   Light Drizzle
4:55 AM 64.9 °F 62.6 °F 92% 29.99 in 10.0 mi North 4.6 mph - 0.00 in   Light Drizzle
4:59 AM 64.4 °F 62.6 °F 94% 29.99 in 10.0 mi NNW 4.6 mph - N/A   Mostly Cloudy
5:55 AM 64.4 °F 61.7 °F 91% 30.00 in 10.0 mi NW 4.6 mph - 0.00 in   Clear
6:55 AM 64.4 °F 61.9 °F 92% 30.03 in 10.0 mi NW 4.6 mph - N/A   Mostly Cloudy
7:14 AM 66.2 °F 62.6 °F 88% 30.03 in 10.0 mi NW 3.5 mph - N/A   Mostly Cloudy
7:15 AM 66.2 °F 62.6 °F 88% 30.03 in 10.0 mi NW 3.5 mph - N/A   Mostly Cloudy
7:18 AM 66.2 °F 64.4 °F 94% 30.03 in 10.0 mi NW 3.5 mph - N/A   Overcast
7:23 AM 66.2 °F 64.4 °F 94% 30.03 in 10.0 mi NNW 3.5 mph - N/A   Overcast
7:55 AM 68.0 °F 64.0 °F 87% 30.04 in 10.0 mi Variable 3.5 mph - N/A   Scattered Clouds
8:37 AM 68.0 °F 64.4 °F 88% 30.05 in 10.0 mi NE 5.8 mph - N/A   Mostly Cloudy
8:48 AM 69.8 °F 64.4 °F 83% 30.05 in 10.0 mi ENE 8.1 mph - N/A   Overcast
8:55 AM 68.9 °F 63.7 °F 83% 30.05 in 10.0 mi NE 5.8 mph - N/A   Overcast
9:05 AM 69.8 °F 62.6 °F 78% 30.05 in 10.0 mi ENE 4.6 mph - N/A   Mostly Cloudy
9:09 AM 69.8 °F 62.6 °F 78% 30.05 in 10.0 mi East 3.5 mph - N/A   Overcast
9:17 AM 69.8 °F 64.4 °F 83% 30.05 in 10.0 mi Variable 3.5 mph - N/A   Mostly Cloudy
9:23 AM 69.8 °F 64.4 °F 83% 30.05 in 10.0 mi Variable 3.5 mph - N/A   Mostly Cloudy
9:55 AM 70.2 °F 62.8 °F 77% 30.04 in 10.0 mi ENE 6.9 mph - N/A   Overcast
10:13 AM 69.8 °F 62.6 °F 78% 30.04 in 10.0 mi ENE 9.2 mph - N/A   Overcast
10:55 AM 72.5 °F 62.6 °F 71% 30.03 in 10.0 mi East 11.5 mph - N/A   Mostly Cloudy
11:55 AM 74.3 °F 63.0 °F 68% 30.02 in 10.0 mi ENE 15.0 mph - N/A   Scattered Clouds
12:55 PM 74.3 °F 63.1 °F 68% 30.00 in 10.0 mi East 13.8 mph 20.7 mph N/A   Overcast
1:55 PM 75.4 °F 61.9 °F 63% 29.98 in 10.0 mi East 19.6 mph - N/A   Partly Cloudy
2:55 PM 74.3 °F 61.9 °F 65% 29.97 in 10.0 mi ENE 16.1 mph - N/A   Partly Cloudy
3:55 PM 72.7 °F 61.5 °F 68% 29.97 in 10.0 mi ENE 10.4 mph - N/A   Mostly Cloudy
4:55 PM 71.8 °F 61.2 °F 69% 29.98 in 10.0 mi ENE 10.4 mph - N/A   Overcast
5:55 PM 69.3 °F 60.4 °F 73% 30.00 in 10.0 mi ENE 6.9 mph - N/A   Overcast
6:55 PM 67.6 °F 59.9 °F 76% 30.01 in 10.0 mi Calm Calm - N/A   Scattered Clouds
7:55 PM 66.2 °F 60.3 °F 81% 30.03 in 10.0 mi Calm Calm - N/A   Clear
8:55 PM 64.2 °F 59.5 °F 85% 30.04 in 10.0 mi Calm Calm - N/A   Clear
9:55 PM 63.0 °F 59.0 °F 87% 30.05 in 10.0 mi West 6.9 mph - N/A   Clear
10:55 PM 63.9 °F 59.4 °F 85% 30.05 in 10.0 mi West 4.6 mph - N/A   Scattered Clouds
11:55 PM 62.2 °F 59.0 °F 89% 30.03 in 10.0 mi Calm Calm - N/A   Clear